sat.trackr.live / text

‹ back to catalog

QIANFAN-206

NORAD 69805 · 2026-153F

PAYLOAD ACTIVE UNKNOWN

§ Identity

Operator
Country
PRC
Launch date
2026-07-04
Launch site
TAISC
Launch vehicle
Mass (kg)
RCS (m²)

External: N2YO · Heavens-Above · Gunter

§ Orbital elements

Epoch: 2026-09-19T20:54:22.398048Z

Period
102.61 min
Inclination
88.9973°
Eccentricity
0.0010734
Mean motion
14.03344104 rev/d
Perigee alt
874.4 km
Apogee alt
890.0 km
Semi-major
7,260.4 km
B*
-1.2233e+0
RAAN
351.4934°
Arg perigee
332.6244°
Mean anomaly
27.4370°
Rev number
1,098

§ Raw data

QIANFAN-2061 69805U 26153F   26262.87109257 -.01770268  00000+0 -12233+1 0  99952 69805  88.9973 351.4934 0010734 332.6244  27.4370 14.03344104 10987

JSON: /api/v1/satellites/69805 · /tle

For live sub-satellite position, see the globe view (requires WebGL).

§ Visibility from observer

Set your observer location to see the next 7 days of passes ≥ 10°. The values pass through the URL so the page stays shareable.

No JS? Fill the form by hand. The geolocation button needs JavaScript.